星链-2102 (STARLINK-2102 )

导读

STARLINK-2102是美国星链计划的低轨互联网卫星,于2021年1月20日发射升空,隶属于SpaceX公司的星链星座组网。它旨在为全球提供高速低延迟宽带互联网服务,尤其覆盖偏远与网络基础设施薄弱区域,是星链大规模低轨星座部署中的一颗组网卫星,推动了星链全球网络布局的进程。

基本信息
目录编号:
47382
目录名称:
STARLINK-2102
国际标识:
2021-005AK
轨道中心:
EARTH
卫星名称:
星链-2102
卫星全名:
星链-2102 (STARLINK-2102 )
卫星状态:
在轨 (已飞行2060 天)
发射日期:
2021-01-20 UTC
国别 :
美国 (US)
星等 :
--
该卫星已列入 空间交会检测服务 Space Conjunction Data Service (SCDS) ,当前飞行风险评估等级: 无高风险
轨道信息
数据来源 国际轨道数据 AOE轨道数据
星历时间 2026-09-10T15:16:16+0800
1天前
查看轨道信息
2026-09-06T07:00:00+0800
5天前
查看轨道信息
半长轴 6848.865km 6848.875km
偏心率 0.0001339 0.0001382
轨道倾角 53.159° 53.157°
近地点辐角 80.420° 95.569°
升交点赤经 247.404° 267.632°
平近点角 279.695° 54.276°
近地点 469.81km 469.791km
远地点 471.646km 471.685km
周期 94.013分钟 94.013分钟
每日圈数 15.317042 15.31701
详细信息
固有亮度:
5
最大亮度:
2.5
卫星平台:
Starlink V1.0
覆盖范围:
全球
运营商:
太空探索技术公司
运营商所在国:
美国
制造商(研发单位):
太空探索技术公司
制造商所在国:
美国
使用方式:
暂无
卫星简介
星链(Starlink)计划是由太空探索技术公司(SpaceX)提出的一个巨型低轨卫星互联网星座项目,计划在2019年至2024年间在太空搭建由约1.2万颗卫星组成的“星链”网络,其中1584颗将部署在地球上空550千米处的近地轨道,并从2020年开始工作。该卫星仍在工作。
2D轨道图
3D轨道图
轨道高度分析图
轨道倾角分析图
轨道综合分析图
查看轨道综合分析图
与全量物体交会距离演化趋势
与全量物体交会风险概率演化趋势